Weather History for Bedford, MA

Change the Weather History Date:

Thursday, September 18, 2014

  Actual Average Record
Temperature  
Mean Temperature 56 °F -  
Max Temperature 73 °F 72 °F 85 °F (1992)
Min Temperature 41 °F 51 °F 34 °F (1961)
Degree Days  
Heating Degree Days 8    
Growing Degree Days 6 (Base 50)    
Moisture  
Dew Point 46 °F    
Average Humidity 70    
Maximum Humidity 97    
Minimum Humidity 41    
Precipitation  
Precipitation 0.00 in - - ()
Sea Level Pressure  
Sea Level Pressure 30.02 in    
Wind  
Wind Speed 3 mph (NW)    
Max Wind Speed 12 mph    
Max Gust Speed -    
Visibility 10 miles    
Events      
Averages and records for this station are not official NWS values.
T = Trace of Precipitation, MM = Missing Value Source: NWS Daily Summary

Daily Weather History Graph

Daily Weather History Graph

Search for Another Location

Airport:

Trip Planner

Search our weather history database for the weather conditions in past years. The results will help you decide how hot, cold, wet, or windy it might be!

Date:

Astronomy

Sep. 18, 2014 Rise Set
Actual Time 6:28 AM EDT 6:49 PM EDT
Civil Twilight 6:00 AM EDT 7:17 PM EDT
Nautical Twilight 5:26 AM EDT 7:50 PM EDT
Astronomical Twilight 4:52 AM EDT 8:24 PM EDT
Moon 1:12 AM EDT (9/18) 3:43 PM EDT (9/18)
Length of Visible Light 13h 17m
Length of Day
12h 21m
Waning Crescent, 26% of the Moon is Illuminated
Sep 18
Waning Crescent
Sep 24
New
Oct 1
First Quarter
Oct 8
Full
Oct 15
Last Quarter

Hourly Weather History & Observations

Time (EDT) Temp. Dew Point Humidity Pressure Visibility Wind Dir Wind Speed Gust Speed Precip Events Conditions
12:56 AM 46.0 °F 44.1 °F 93% 29.99 in 10.0 mi Calm Calm - N/A   Clear
1:56 AM 45.0 °F 44.1 °F 97% 29.99 in 10.0 mi Calm Calm - N/A   Clear
2:56 AM 44.1 °F 43.0 °F 96% 29.97 in 10.0 mi Calm Calm - N/A   Clear
3:56 AM 42.8 °F 41.0 °F 93% 29.93 in 10.0 mi Calm Calm - N/A   Clear
4:56 AM 42.1 °F 41.0 °F 96% 29.98 in 10.0 mi Calm Calm - N/A   Clear
5:56 AM 42.1 °F 39.9 °F 92% 29.99 in 10.0 mi Calm Calm - N/A   Clear
6:56 AM 41.0 °F 39.9 °F 96% 30.00 in 10.0 mi Calm Calm - N/A   Clear
7:56 AM 48.9 °F 46.9 °F 93% 30.01 in 10.0 mi Calm Calm - N/A   Clear
8:56 AM 55.0 °F 48.9 °F 80% 30.02 in 10.0 mi West 3.5 mph - N/A   Clear
9:56 AM 63.0 °F 50.0 °F 63% 30.01 in 10.0 mi NW 4.6 mph - N/A   Clear
10:56 AM 66.9 °F 48.9 °F 52% 30.01 in 10.0 mi NNW 5.8 mph - N/A   Clear
11:56 AM 69.1 °F 48.0 °F 47% 30.00 in 10.0 mi Variable 4.6 mph - N/A   Clear
12:56 PM 71.1 °F 48.0 °F 44% 30.00 in 10.0 mi WNW 6.9 mph - N/A   Clear
1:56 PM 71.1 °F 48.0 °F 44% 29.99 in 10.0 mi West 6.9 mph - N/A   Scattered Clouds
2:56 PM 72.0 °F 46.9 °F 41% 29.98 in 10.0 mi West 6.9 mph - N/A   Clear
3:56 PM 68.0 °F 48.9 °F 50% 29.99 in 10.0 mi NW 5.8 mph - N/A   Overcast
4:56 PM 69.1 °F 51.1 °F 53% 30.00 in 10.0 mi NW 5.8 mph - N/A   Overcast
5:56 PM 66.9 °F 50.0 °F 54% 30.02 in 10.0 mi NW 5.8 mph - N/A   Overcast
6:56 PM 63.0 °F 48.9 °F 60% 30.04 in 10.0 mi NNW 4.6 mph - N/A   Overcast
7:56 PM 61.0 °F 48.9 °F 64% 30.07 in 10.0 mi North 5.8 mph - N/A   Mostly Cloudy
8:56 PM 59.0 °F 48.0 °F 67% 30.11 in 10.0 mi North 11.5 mph - N/A   Scattered Clouds
9:56 PM 55.9 °F 46.0 °F 69% 30.13 in 10.0 mi North 8.1 mph - N/A   Scattered Clouds
10:56 PM 54.0 °F 43.0 °F 66% 30.16 in 10.0 mi North 11.5 mph - N/A   Overcast
11:56 PM 51.1 °F 41.0 °F 68% 30.19 in 10.0 mi North 10.4 mph - N/A   Clear